Theta_e
295 292 288 290 291 291 290 288 288 292 295 291 292 291 296 298 298 298 296 307 317 320 325 329 330 331 330 330 331 333 333 334 334 336 337 337 335 337 339 341 343 342 343 344
293 289 294 295 294 293 291 288 289 293 296 292 294 293 295 297 301 304 306 307 315 319 321 324 327 329 330 331 331 332 333 334 334 337 339 341 340 340 342 341 342 343 344 344
290 294 298 296 294 293 290 289 290 291 295 294 292 291 293 296 302 308 309 313 318 322 327 329 330 331 333 333 335 335 333 335 337 338 340 340 342 344 344 344 343 343 343 344
291 296 296 294 295 294 288 295 295 293 291 287 291 284 289 297 299 306 309 315 322 325 325 326 323 323 325 328 334 339 341 337 341 342 339 338 336 335 341 343 346 346 345 344
292 293 294 294 294 297 292 297 295 294 289 286 288 284 286 298 297 300 310 316 319 320 320 320 320 321 324 327 333 334 334 334 335 338 344 341 340 340 341 341 341 344 344 343
293 298 297 295 298 298 298 294 291 288 286 282 287 284 283 293 298 302 307 312 319 320 320 321 321 322 321 323 325 328 330 330 333 334 334 334 333 333 335 337 339 340 343 344
293 293 296 299 292 294 293 286 280 280 280 280 288 286 286 299 302 304 305 307 311 316 318 319 319 319 320 320 321 323 322 322 324 325 325 328 331 332 332 332 332 332 333 334
286 284 293 297 292 288 289 286 280 276 278 280 289 283 290 301 304 306 307 308 308 308 310 311 312 312 313 315 316 316 317 317 319 320 320 321 321 322 320 322 327 331 331 332
285 286 295 297 295 294 290 286 290 285 284 281 284 291 301 304 304 304 305 306 305 306 307 308 310 311 311 311 312 314 314 314 315 316 315 314 314 315 314 316 318 320 324 328
290 284 292 295 296 296 293 295 285 284 276 275 281 285 288 300 300 301 302 303 305 307 308 309 309 307 309 309 310 311 310 309 310 309 310 310 310 311 311 312 313 316 318 320
290 286 286 290 289 289 290 288 289 286 285 279 279 282 299 299 301 301 303 305 306 308 309 310 311 310 309 309 309 309 309 309 308 308 308 309 308 309 310 310 311 314 315 317
289 285 281 284 290 298 294 291 289 281 279 287 286 284 300 300 302 303 304 302 307 309 310 311 312 312 310 308 308 309 309 308 308 309 308 308 308 309 309 309 310 312 313 316
290 283 280 282 286 289 288 293 291 287 285 286 282 282 300 302 303 304 302 303 304 309 310 310 311 310 311 309 308 306 307 307 308 308 307 307 307 307 307 308 310 311 312 314
294 283 283 280 283 286 285 289 293 288 283 282 285 286 292 296 301 303 305 307 306 308 309 310 310 309 309 307 304 304 304 305 306 306 306 307 306 308 308 309 311 311 312 313
289 283 284 286 288 289 289 290 289 288 288 284 288 288 293 296 298 302 305 306 305 306 308 309 308 308 303 303 303 303 304 305 305 305 304 304 306 307 307 308 309 309 311 311
288 284 285 286 291 290 288 289 289 288 288 290 290 290 297 298 298 301 305 306 305 306 309 310 309 304 302 302 302 303 304 305 304 303 303 305 306 306 306 308 308 307 307 308
286 284 281 279 285 285 281 285 287 288 291 289 285 287 292 297 300 302 303 305 306 307 307 304 301 301 301 301 302 303 304 305 304 302 304 305 305 306 306 307 306 306 305 306
283 282 281 279 281 275 284 291 292 291 292 293 292 292 294 295 297 299 303 301 301 301 302 300 300 301 301 301 301 303 303 302 302 302 302 304 305 305 306 306 305 305 305 305
288 283 279 276 277 282 287 291 290 287 287 294 292 294 295 296 296 295 299 300 299 301 301 301 301 302 302 300 301 301 301 300 301 301 302 303 304 304 305 304 304 304 304 305
288 286 282 278 277 274 285 293 297 293 282 294 295 294 294 294 287 290 298 300 300 302 303 303 302 300 299 300 300 300 300 299 299 301 302 304 304 304 303 303 303 304 305 305
282 282 279 275 281 285 290 295 298 282 283 294 296 294 293 291 293 297 300 300 301 300 300 300 299 298 299 299 299 298 298 298 301 302 303 303 304 304 304 303 303 303 304 304
283 279 280 278 275 277 295 295 288 290 292 294 294 295 295 295 297 297 298 298 298 298 298 299 298 298 298 299 298 297 297 300 301 301 302 303 303 303 305 303 303 303 303 302
281 285 282 282 282 289 294 294 296 297 295 295 297 298 297 296 295 296 295 295 296 297 297 298 296 296 298 298 298 297 299 300 302 302 302 302 302 303 303 302 302 302 302 301
286 291 284 286 288 291 295 296 298 300 298 299 300 300 299 297 296 296 295 293 294 294 295 296 295 295 296 298 300 300 301 304 304 303 301 301 301 301 302 301 301 300 300 301
286 286 285 285 289 291 293 295 298 298 299 299 300 299 299 298 296 295 294 295 294 294 295 295 295 295 296 298 300 301 302 303 302 301 301 300 300 299 299 300 300 300 302 301
287 286 281 283 288 288 290 294 298 298 298 299 296 296 296 296 295 295 294 293 293 293 294 293 294 295 297 298 298 300 302 303 303 301 301 300 299 298 298 297 298 296 295 295
Wind_Speed
4 7 0 4 4 4 2 2 4 7 7 2 7 7 13 11 9 15 9 7 8 10 3 3 6 7 8 7 8 8 8 7 7 4 5 3 4 3 3 4 5 6 5 3
7 0 3 3 3 4 4 2 6 8 4 3 9 9 9 6 4 6 10 8 6 9 9 9 4 4 3 3 1 6 7 8 5 4 3 3 3 3 3 5 7 5 5 6
4 4 1 1 5 3 1 2 5 6 7 2 5 7 5 3 5 14 15 8 7 8 9 11 12 10 8 7 5 1 4 4 4 6 4 3 2 2 1 2 3 6 10 11
2 3 4 6 5 2 3 3 5 6 3 3 2 8 6 5 7 14 16 13 8 10 11 11 10 11 9 8 8 8 7 5 5 8 6 5 4 3 1 1 2 4 7 7
3 6 6 8 3 3 3 6 6 4 4 3 8 2 6 7 7 14 14 14 11 11 14 12 11 10 10 8 10 10 12 12 9 8 5 5 6 3 2 2 4 1 1 3
3 2 5 3 2 3 7 5 3 3 3 1 3 3 4 4 6 9 13 14 10 12 13 12 12 12 12 12 13 11 13 14 12 13 12 10 10 7 7 6 6 5 4 5
6 3 4 4 5 6 10 7 6 7 5 5 5 2 7 1 3 4 8 10 7 10 11 12 12 13 12 14 12 12 15 16 13 15 15 12 10 10 10 7 5 7 7 5
2 4 4 6 3 4 4 3 5 4 3 5 6 7 5 4 5 5 6 7 5 13 9 10 11 10 10 11 12 14 14 14 12 12 11 8 7 5 6 5 4 4 4 5
2 3 3 4 3 2 5 4 1 1 2 2 4 4 4 5 4 7 9 8 7 15 9 8 10 10 10 11 11 10 11 10 10 8 9 9 8 9 7 7 4 4 5 6
4 3 3 5 4 5 3 2 3 4 2 5 6 4 4 5 2 4 6 9 7 6 14 9 11 9 10 9 10 9 9 8 7 7 8 6 7 8 6 6 8 7 5 5
3 3 4 2 4 1 5 3 6 3 3 2 5 7 5 5 7 6 4 3 7 11 9 6 9 8 8 7 9 10 11 8 7 6 7 7 7 7 6 6 6 7 6 6
1 5 1 2 1 1 1 3 4 5 5 3 3 7 3 7 9 10 9 0 9 7 5 8 6 6 6 6 4 4 5 1 5 4 4 3 5 3 4 5 6 7 8 7
5 1 3 7 5 2 2 3 4 4 2 6 4 7 3 3 5 9 11 11 12 10 7 2 6 1 2 4 4 3 3 3 2 4 5 6 7 5 5 5 6 6 6 7
6 4 7 7 7 4 3 4 5 5 4 5 9 8 12 8 9 10 14 15 11 9 7 4 3 2 1 4 4 4 3 4 2 3 4 4 3 3 3 4 4 5 5 6
5 4 4 5 6 4 5 8 8 8 8 8 14 10 15 16 11 13 10 7 9 9 7 8 5 4 3 5 2 2 5 5 4 6 6 5 5 5 5 5 6 6 5 5
3 2 4 3 7 8 8 8 9 12 13 13 14 18 17 17 7 8 11 9 10 10 9 7 5 4 4 2 4 5 5 5 5 6 6 7 6 7 7 6 6 7 7 6
4 5 3 4 3 5 7 7 7 4 2 3 5 9 6 7 7 7 7 6 6 6 7 7 6 5 3 4 1 2 3 3 4 4 5 5 5 5 6 6 5 6 7 6
6 6 3 3 2 3 7 4 7 5 4 4 6 7 5 4 3 6 3 9 12 4 4 4 4 1 3 3 3 3 3 4 4 5 5 5 5 5 5 4 5 5 4 5
7 6 3 3 3 7 4 3 2 2 6 4 4 1 3 4 5 8 6 6 7 5 5 4 4 4 3 4 4 4 5 5 5 5 5 5 5 6 6 6 6 5 4 4
6 4 5 3 3 4 6 0 5 1 6 5 6 5 3 3 4 4 1 6 7 6 2 5 4 4 4 5 1 3 5 4 6 7 7 7 7 6 6 7 7 4 3 6
3 1 5 1 3 6 7 5 3 2 8 3 6 4 2 1 4 3 5 2 3 2 4 5 4 5 7 7 6 7 6 7 6 5 6 7 7 7 7 6 3 4 5 5
5 6 4 2 2 7 1 1 3 6 4 2 3 4 3 3 3 4 4 4 4 3 4 4 3 5 5 4 3 6 7 9 7 6 6 7 7 6 6 5 6 5 4 4
3 5 4 9 7 5 3 5 4 4 4 2 2 1 3 2 3 4 3 4 3 4 3 3 4 6 6 5 3 6 9 8 11 8 8 7 7 6 5 5 6 5 3 3
2 3 3 2 2 4 6 5 5 5 4 3 5 4 3 3 5 2 2 2 3 4 4 5 5 6 7 7 7 5 8 10 10 7 8 7 6 6 4 4 4 4 4 4
6 1 3 5 7 7 5 6 7 4 4 6 6 6 6 5 3 2 1 0 1 3 4 3 4 4 7 7 6 7 7 7 8 5 5 5 4 5 6 5 4 5 6 6
6 8 5 9 8 5 7 7 4 6 7 5 6 7 5 1 3 2 1 2 2 4 3 4 5 5 7 7 8 7 6 6 5 5 4 4 5 6 6 6 9 8 12 13
Wind_Direction
11 64 66 248 187 188 209 206 249 265 263 236 269 277 283 311 3 351 309 257 221 215 309 145 136 136 138 148 150 154 144 147 142 148 155 183 189 206 202 212 189 185 189 174
23 60 230 221 187 179 181 247 287 282 270 162 292 297 292 35 30 345 339 333 356 359 4 8 4 100 93 52 129 164 171 155 156 160 151 152 161 202 185 173 205 210 240 241
136 256 316 62 35 46 268 162 296 264 315 272 331 305 323 336 18 3 1 347 36 66 54 37 37 30 50 49 35 209 218 172 167 155 118 87 68 55 123 163 177 197 216 220
222 343 354 52 66 37 24 330 258 269 351 287 46 283 297 6 356 13 3 357 12 44 58 48 38 36 35 35 46 63 86 141 166 161 156 154 176 157 233 237 203 213 197 194
299 25 51 48 26 14 247 309 291 276 247 64 338 313 268 26 358 348 360 356 32 46 54 40 28 28 33 39 63 65 75 67 53 53 102 100 87 84 68 31 14 280 134 214
49 321 56 343 23 89 291 338 336 51 107 122 242 171 314 1 324 324 340 348 40 51 50 43 41 38 33 28 38 50 68 66 59 64 60 74 76 63 56 24 14 354 33 50
358 357 332 28 20 349 29 39 342 353 16 222 281 318 253 121 36 322 342 351 9 48 54 41 38 45 45 43 38 45 50 53 47 54 54 52 58 58 52 38 25 22 19 17
91 317 25 331 113 264 318 123 157 271 236 270 316 252 313 54 50 21 17 351 346 59 41 56 43 42 42 54 53 52 46 47 41 42 49 48 50 75 67 45 22 29 22 13
119 275 325 33 359 74 313 43 196 36 27 342 265 297 212 142 82 50 11 359 332 93 60 44 60 51 48 39 33 35 51 56 49 51 37 26 32 48 48 29 18 19 12 359
195 320 18 307 56 21 90 111 33 13 331 298 293 283 265 218 139 46 65 336 328 70 79 31 62 39 57 61 47 37 39 39 27 52 48 34 22 18 29 45 33 9 344 356
102 116 289 27 27 274 1 35 58 104 133 234 311 273 217 240 157 127 41 328 336 330 71 53 41 52 59 33 53 43 13 32 13 47 45 30 14 19 16 27 22 7 345 347
59 129 206 221 334 251 64 149 127 119 267 247 260 264 204 233 177 169 145 7 293 323 2 54 46 16 37 35 65 65 119 21 303 45 56 41 36 21 19 23 17 3 358 343
187 33 24 348 358 326 186 178 126 110 115 213 218 266 213 253 196 183 170 187 226 233 248 308 56 208 311 341 335 37 65 320 30 24 61 23 17 352 17 23 15 9 355 350
96 141 171 199 216 177 248 219 185 155 182 205 228 278 281 242 217 202 202 204 195 193 206 234 315 280 305 269 215 202 174 223 151 78 49 39 355 335 8 347 29 26 354 355
115 192 195 252 242 212 225 243 243 197 224 208 271 229 261 267 205 215 209 173 187 192 209 223 207 210 259 239 332 348 29 25 19 13 14 3 339 333 338 357 10 3 7 2
11 224 162 265 253 247 259 257 250 255 250 250 260 272 269 285 238 186 183 189 210 207 204 226 202 187 196 356 339 355 1 13 15 4 351 345 350 347 352 358 338 335 343 343
147 144 101 265 331 332 297 230 231 250 200 194 228 242 330 300 277 188 152 163 228 238 220 179 158 157 178 249 271 303 302 315 325 333 320 328 326 330 327 327 333 329 327 327
142 127 136 236 3 233 242 260 216 189 231 231 273 293 323 308 17 36 17 132 122 116 84 97 117 215 277 288 282 299 288 291 309 317 308 297 297 295 292 299 298 293 292 305
152 132 147 161 204 290 327 165 75 346 279 200 221 324 42 53 57 33 36 59 94 124 156 180 203 214 265 281 271 286 290 299 325 308 296 287 292 301 305 303 293 289 282 295
78 84 124 152 153 235 243 359 349 93 281 199 162 182 152 42 66 276 130 125 133 142 185 250 286 318 297 283 168 245 283 320 296 296 300 304 298 282 278 276 279 269 260 288
101 68 185 142 233 279 252 292 287 177 247 192 160 201 263 201 201 179 128 44 49 65 290 291 287 276 288 316 328 315 321 297 277 278 278 282 282 283 276 268 245 261 270 273
182 156 196 107 146 267 205 353 192 222 294 271 174 176 156 136 108 93 85 74 19 354 347 354 319 292 297 312 321 291 286 276 278 285 282 285 290 281 282 285 283 281 283 287
278 189 198 178 215 236 265 233 248 182 209 153 133 264 140 118 106 61 29 29 17 14 347 349 342 324 318 326 294 279 278 293 296 300 293 296 292 288 295 293 290 294 302 287
280 179 222 34 265 227 253 256 242 206 238 173 135 129 107 119 21 32 93 0 353 338 331 333 332 329 318 321 315 292 297 303 294 286 297 299 302 309 302 292 287 288 290 290
210 31 219 264 287 299 276 236 253 222 187 167 173 150 161 163 208 187 148 118 325 329 329 342 330 305 293 295 292 303 304 302 293 303 292 294 295 298 302 296 276 286 273 243
195 222 182 250 234 202 251 282 301 182 167 152 116 79 53 70 132 114 222 266 287 289 296 318 309 298 291 296 297 299 293 310 312 310 307 305 308 309 306 303 303 245 248 264